Regional Weather Roundup
Issued by NWS

Home | Current Version | Previous Version | Graphics & Text | Print | Product List | Glossary On
Versions: 1 2 3 4 5 6 7 8 9 10 11 12 13 14 15 16 17 18 19 20 21 22 23 24 25 26 27 28 29 30 31 32 33 34 35 36 37 38 39 40 41 42 43 44 45 46 47 48 49 50
000
ASUS43 KBIS 262302
RWRND

NORTH DAKOTA REGIONAL WEATHER ROUNDUP
NATIONAL WEATHER SERVICE BISMARCK ND
600 PM CDT THU APR 26 2018

NOTE: "FAIR" INDICATES FEW OR NO CLOUDS BELOW 12,000 FEET WITH NO
SIGNIFICANT WEATHER AND/OR OBSTRUCTIONS TO VISIBILITY.


NDZ001>003-009>011-017-270000-
NORTHWEST NORTH DAKOTA

CITY           SKY/WX    TMP DP  RH WIND       PRES   REMARKS
WILLISTON      SUNNY     70  25  18 W25G35    29.99F
MINOT          SUNNY     70  24  17 W28G37    29.92F
MINOT AFB      SUNNY     69  25  19 NW28G38   29.89F
$$

NDZ018>021-031>035-040>046-270000-
SOUTHWEST NORTH DAKOTA

CITY           SKY/WX    TMP DP  RH WIND       PRES   REMARKS
BISMARCK       SUNNY     68  26  20 NW21G26   30.01F
DICKINSON      SUNNY     66  24  20 NW20G29   30.03F
GARRISON         N/A     65  25  22 W23G37    29.97F
HETTINGER ARPT SUNNY     64  27  24 W17G29    30.08F
$$

NDZ004>008-012>016-024-026-027-054-270000-
NORTHEAST NORTH DAKOTA

CITY           SKY/WX    TMP DP  RH WIND       PRES   REMARKS
GRAND FORKS    FAIR      61  30  31 NW8       29.93F
GRND FRKS AFB  FAIR      63  26  24 N9        29.93F
DEVILS LAKE    CLOUDY    62  26  25 NW15      29.93F
$$

NDZ022-023-025-028>030-036>039-047>053-270000-
SOUTHEAST NORTH DAKOTA

CITY           SKY/WX    TMP DP  RH WIND       PRES   REMARKS
FARGO          FAIR      60  29  30 NW16      29.98F
JAMESTOWN      SUNNY     65  24  21 NW16G25   29.97F
$$





USA.gov is the U.S. government's official web portal to all federal, state and local government web resources and services.